Location: El Bakhil
(32.7726°N, 5.5387°W)
Time: 05:32:03
(UTC+00:00)

CSL-04 Rocket - Pass Details

Date: 03 March 2021
Orbit: 805 x 861 km, 98.9° (Epoch: 12 April)

Event Time Altitude Azimuth Distance (km) Brightness Sun altitude
Rises 19:58:41 0° 175° (S) 3,420 6.8 -21.3°
Reaches altitude 10° 20:01:05 10° 179° (S) 2,488 6.1 -21.8°
Maximum altitude 20:06:32 60° 259° (WSW) 978 4.2 -22.9°
Drops below altitude 10° 20:12:00 10° 339° (NNW) 2,489 6.5 -24.1°
Sets 20:14:25 0° 343° (NNW) 3,422 7.2 -24.6°
